ITUPSAT1

Last updated on Mon Sep 15 2025 00:03:09 GMT+0000 (Coordinated Universal Time)

1 35935U 09051E 25256.93620529 .00000702 00000+0 15735-3 0 9998 2 35935 98.4193 154.5687 0008225 24.5414 335.6176 14.59718403848423
UTC large
Height (km)
Speed (km/s)
/
Latitude / Longitude
Inclination (degrees)
Orbital Period (minutes)
Azimuth
Elevation
Range (km)
Doppler Factor

Next 0 passes for location: London (51.5072 / 0.1276)

Sorry there are no passes over London.